| time (UTC) | temp F | wind direction | speed MPH | gust MPH | rain 1hr in | rain 24hr in | rain mn in | humidity % | barometer mb |
| 20260506174600 | 61 | 200 | 4.0 | 10.0 | 0.00 | 0.00 | 0.00 | 49 | 1002.7 |
| 20260506173019 | 61 | 292 | 7.0 | 10.0 | 0.00 | 0.00 | 0.00 | 48 | 1002.4 |
| 20260506171613 | 62 | 284 | 5.0 | 13.0 | 0.00 | 0.00 | 0.00 | 46 | 1002.1 |
| 20260506170024 | 62 | 274 | 3.0 | 11.0 | 0.00 | 0.00 | 0.00 | 46 | 1001.9 |
| 20260506164612 | 63 | 243 | 5.0 | 17.0 | 0.00 | 0.00 | 0.00 | 48 | 1001.7 |
| 20260506163037 | 64 | 254 | 1.0 | 3.0 | 0.00 | 0.00 | 0.00 | 52 | 1001.7 |
| 20260506161623 | 65 | 102 | 0.0 | 9.0 | 0.00 | 0.00 | 0.00 | 44 | 1001.3 |
| 20260506160036 | 65 | 115 | 1.0 | 7.0 | 0.00 | 0.00 | 0.00 | 44 | 1001.1 |
| 20260506154619 | 65 | 134 | 0.0 | 5.0 | 0.00 | 0.00 | 0.00 | 44 | 1000.9 |
| 20260506153039 | 66 | 191 | 2.0 | 14.0 | 0.00 | 0.00 | 0.00 | 42 | 1000.6 |
| 20260506151630 | 67 | 107 | 8.0 | 18.0 | 0.00 | 0.00 | 0.00 | 39 | 1000.6 |
| 20260506150046 | 68 | 74 | 0.0 | 4.0 | 0.00 | 0.00 | 0.00 | 39 | 1000.4 |
| 20260506144629 | 68 | 100 | 0.0 | 2.0 | 0.00 | 0.00 | 0.00 | 42 | 1000.4 |
| 20260506143038 | 69 | 63 | 0.0 | 6.0 | 0.00 | 0.00 | 0.00 | 38 | 1000.2 |
| 20260506141618 | 69 | 86 | 0.0 | 3.0 | 0.00 | 0.00 | 0.00 | 39 | 1000.3 |
| 20260506140036 | 69 | 236 | 1.0 | 4.0 | 0.00 | 0.00 | 0.00 | 39 | 1000.3 |
| 20260506134605 | 70 | 93 | 1.0 | 5.0 | 0.00 | 0.00 | 0.00 | 37 | 1000.5 |
| 20260506133018 | 70 | 51 | 2.0 | 9.0 | 0.00 | 0.00 | 0.00 | 36 | 1000.6 |
| 20260506131600 | 70 | 61 | 2.0 | 7.0 | 0.00 | 0.00 | 0.00 | 35 | 1000.9 |
| 20260506130016 | 69 | 51 | 4.0 | 19.0 | 0.00 | 0.00 | 0.00 | 36 | 1000.7 |
| 20260506124556 | 71 | 185 | 4.0 | 10.0 | 0.00 | 0.00 | 0.00 | 36 | 1001.1 |
| 20260506123015 | 71 | 102 | 2.0 | 13.0 | 0.00 | 0.00 | 0.00 | 37 | 1000.8 |
| 20260506121559 | 70 | 165 | 2.0 | 9.0 | 0.00 | 0.00 | 0.00 | 39 | 1001.2 |
| 20260506120130 | 71 | 120 | 1.0 | 8.0 | 0.00 | 0.00 | 0.00 | 40 | 1001.1 |
| 20260506114529 | 70 | 238 | 5.0 | 12.0 | 0.00 | 0.00 | 0.00 | 38 | 1001.6 |
| 20260506113107 | 70 | 84 | 0.0 | 5.0 | 0.00 | 0.00 | 0.00 | 43 | 1001.7 |
| 20260506111509 | 69 | 360 | 1.0 | 13.0 | 0.00 | 0.00 | 0.00 | 45 | 1001.8 |
| 20260506110047 | 69 | 67 | 3.0 | 12.0 | 0.00 | 0.00 | 0.00 | 40 | 1001.8 |
| 20260506104617 | 69 | 236 | 0.0 | 9.0 | 0.00 | 0.00 | 0.00 | 40 | 1001.9 |
| 20260506103024 | 69 | 109 | 1.0 | 7.0 | 0.00 | 0.00 | 0.00 | 43 | 1002.1 |
| 20260506101510 | 67 | 323 | 1.0 | 3.0 | 0.00 | 0.00 | 0.00 | 42 | 1002.4 |
| 20260506100115 | 66 | 299 | 1.0 | 7.0 | 0.00 | 0.00 | 0.00 | 50 | 1002.6 |
| 20260506094531 | 65 | 266 | 3.0 | 8.0 | 0.00 | 0.00 | 0.00 | 51 | 1002.8 |
| 20260506093105 | 61 | 267 | 0.0 | 2.0 | 0.00 | 0.00 | 0.00 | 58 | 1003.3 |
| 20260506091502 | 60 | 257 | 0.0 | 2.0 | 0.00 | 0.00 | 0.00 | 59 | 1003.5 |
| 20260506090029 | 59 | 305 | 1.0 | 2.0 | 0.00 | 0.00 | 0.00 | 62 | 1003.3 |
| 20260506084603 | 59 | 238 | 0.0 | 3.0 | 0.00 | 0.00 | 0.00 | 64 | 1003.5 |
| 20260506083001 | 58 | 215 | 0.0 | 2.0 | 0.00 | 0.00 | 0.00 | 62 | 1003.6 |
| 20260506081537 | 57 | 213 | 0.0 | 3.0 | 0.00 | 0.00 | 0.00 | 61 | 1003.7 |
| 20260506080111 | 56 | 205 | 0.0 | 0.0 | 0.00 | 0.00 | 0.00 | 69 | 1003.9 |
| 20260506073027 | 54 | 307 | 0.0 | 3.0 | 0.00 | 0.00 | 0.00 | 71 | 1004.4 |
| 20260506071614 | 53 | 293 | 1.0 | 3.0 | 0.00 | 0.00 | 0.00 | 69 | 1004.6 |
| 20260506061533 | 47 | 315 | 1.0 | 3.0 | 0.00 | 0.00 | 0.00 | 82 | 1005.4 |
| 20260506060121 | 45 | 302 | 0.0 | 0.0 | 0.00 | 0.00 | 0.00 | 85 | 1005.5 |
| 20260506050111 | 40 | 239 | 0.0 | 0.0 | 0.00 | 0.00 | 0.00 | 90 | 1006.2 |
| 20260506044535 | 40 | 221 | 0.0 | 1.0 | 0.00 | 0.00 | 0.00 | 91 | 1006.2 |
| 20260506043109 | 38 | 55 | 0.0 | 1.0 | 0.00 | 0.00 | 0.00 | 93 | 1006.5 |
| 20260506041516 | 37 | 266 | 0.0 | 1.0 | 0.00 | 0.00 | 0.00 | 92 | 1006.6 |
| 20260506040046 | 38 | 256 | 0.0 | 0.0 | 0.00 | 0.00 | 0.00 | 90 | 1006.2 |
| 20260506034503 | 40 | 86 | 0.0 | 1.0 | 0.00 | 0.00 | 0.00 | 90 | 1006.0 |
| 20260506033101 | 38 | 47 | 0.0 | 0.0 | 0.00 | 0.00 | 0.00 | 92 | 1006.1 |
| 20260506031506 | 38 | 47 | 0.0 | 1.0 | 0.00 | 0.00 | 0.00 | 93 | 1006.5 |
| 20260506030059 | 37 | 272 | 0.0 | 0.0 | 0.00 | 0.00 | 0.00 | 92 | 1007.0 |
| 20260506024515 | 40 | 172 | 0.0 | 0.0 | 0.00 | 0.00 | 0.00 | 91 | 1006.8 |
| 20260506023105 | 38 | 207 | 0.0 | 0.0 | 0.00 | 0.00 | 0.00 | 91 | 1006.9 |
| 20260506021522 | 39 | 206 | 0.0 | 0.0 | 0.00 | 0.00 | 0.00 | 90 | 1006.8 |
| 20260506020114 | 39 | 202 | 0.0 | 0.0 | 0.00 | 0.00 | 0.00 | 89 | 1007.0 |
| 20260506014534 | 40 | 202 | 0.0 | 0.0 | 0.00 | 0.00 | 0.00 | 88 | 1006.7 |
| 20260506013116 | 40 | 202 | 0.0 | 0.0 | 0.00 | 0.00 | 0.00 | 90 | 1006.6 |
| 20260506011544 | 40 | 202 | 0.0 | 0.0 | 0.00 | 0.00 | 0.00 | 87 | 1006.8 |
| 20260506010121 | 40 | 202 | 0.0 | 1.0 | 0.00 | 0.00 | 0.00 | 88 | 1006.4 |
| 20260506004540 | 42 | 71 | 0.0 | 1.0 | 0.00 | 0.00 | 0.00 | 86 | 1006.3 |
| 20260506003123 | 40 | 208 | 0.0 | 2.0 | 0.00 | 0.00 | 0.00 | 85 | 1006.3 |
| 20260506001541 | 43 | 146 | 0.0 | 0.0 | 0.00 | 0.00 | 0.00 | 84 | 1006.3 |
| 20260506000130 | 41 | 269 | 0.0 | 2.0 | 0.00 | 0.00 | 0.00 | 84 | 1006.3 |
| 20260505234542 | 44 | 104 | 0.0 | 1.0 | 0.00 | 0.00 | 0.00 | 82 | 1006.2 |
| 20260505233132 | 44 | 163 | 0.0 | 0.0 | 0.00 | 0.00 | 0.00 | 80 | 1006.2 |
| 20260505231552 | 45 | 65 | 0.0 | 0.0 | 0.00 | 0.00 | 0.00 | 80 | 1006.2 |
| 20260505230136 | 44 | 209 | 0.0 | 0.0 | 0.00 | 0.00 | 0.00 | 81 | 1006.2 |
| 20260505224544 | 47 | 176 | 0.0 | 0.0 | 0.00 | 0.00 | 0.00 | 76 | 1006.0 |
| 20260505223136 | 47 | 178 | 0.0 | 0.0 | 0.00 | 0.00 | 0.00 | 75 | 1006.0 |
| 20260505221600 | 48 | 67 | 0.0 | 2.0 | 0.00 | 0.00 | 0.00 | 74 | 1005.8 |
| 20260505220002 | 47 | 247 | 0.0 | 1.0 | 0.00 | 0.00 | 0.00 | 74 | 1005.7 |
| 20260505214558 | 48 | 198 | 0.0 | 1.0 | 0.00 | 0.00 | 0.00 | 72 | 1005.7 |
| 20260505213009 | 48 | 233 | 0.0 | 0.0 | 0.00 | 0.00 | 0.00 | 74 | 1005.8 |
| 20260505211559 | 49 | 234 | 0.0 | 1.0 | 0.00 | 0.00 | 0.00 | 71 | 1005.7 |
| 20260505210014 | 50 | 32 | 0.0 | 2.0 | 0.00 | 0.00 | 0.00 | 70 | 1005.5 |
| 20260505204612 | 50 | 205 | 0.0 | 0.0 | 0.00 | 0.00 | 0.00 | 68 | 1005.5 |
| 20260505203022 | 51 | 313 | 0.0 | 0.0 | 0.00 | 0.00 | 0.00 | 66 | 1005.2 |
| 20260505201606 | 52 | 344 | 0.0 | 1.0 | 0.00 | 0.00 | 0.00 | 64 | 1005.0 |
| 20260505200018 | 55 | 290 | 3.0 | 6.0 | 0.00 | 0.00 | 0.00 | 58 | 1004.8 |
| 20260505194608 | 58 | 192 | 1.0 | 13.0 | 0.00 | 0.00 | 0.00 | 52 | 1004.6 |
| 20260505193031 | 59 | 77 | 1.0 | 5.0 | 0.00 | 0.00 | 0.00 | 51 | 1004.3 |
| 20260505191611 | 59 | 16 | 4.0 | 13.0 | 0.00 | 0.00 | 0.00 | 50 | 1004.3 |
| 20260505190020 | 59 | 119 | 0.0 | 8.0 | 0.00 | 0.00 | 0.00 | 50 | 1004.0 |
| 20260505184608 | 61 | 80 | 1.0 | 8.0 | 0.00 | 0.00 | 0.00 | 47 | 1003.9 |
| 20260505183021 | 61 | 59 | 4.0 | 14.0 | 0.00 | 0.00 | 0.00 | 47 | 1003.7 |
| 20260505181617 | 61 | 86 | 2.0 | 16.0 | 0.00 | 0.00 | 0.00 | 47 | 1003.5 |
| 20260505180019 | 62 | 274 | 2.0 | 15.0 | 0.00 | 0.00 | 0.00 | 46 | 1003.4 |